Vorticity
6 7 10 11 14 15 11 4 3 3 3 2 3 2 4 5 2 0 1 1 2 2 5 9 5 5 12 8 14 12 10 11 8 10 15 15 14 9 8 5 4 6 7 9 7
6 10 11 13 13 15 7 4 3 2 3 2 3 3 3 2 1 -0 1 3 3 3 5 4 9 8 4 9 7 6 9 9 10 2 6 7 4 7 7 7 9 9 7 8 7
8 10 12 10 12 12 5 4 2 2 2 3 2 2 1 1 2 4 4 2 4 6 5 5 4 5 8 7 9 6 2 1 5 5 6 5 6 7 7 11 10 7 4 6 7
9 10 9 11 12 11 6 3 2 2 2 2 2 4 4 2 2 9 8 8 10 7 6 5 5 7 7 10 10 9 9 11 5 8 8 6 6 7 9 7 7 7 7 6 6
7 7 8 8 9 13 8 4 3 1 2 2 1 1 1 3 -1 -2 7 12 7 6 7 8 8 7 10 7 8 8 9 8 9 9 8 8 7 4 11 6 10 9 7 5 6
7 8 6 7 6 8 12 9 7 4 3 2 3 3 1 5 9 5 8 9 7 7 9 10 11 8 4 9 9 2 8 9 10 10 8 8 7 7 13 5 8 6 5 5 7
7 7 7 7 6 7 6 7 9 9 8 8 8 7 6 6 -0 0 10 7 8 9 10 10 7 5 5 9 14 10 10 10 7 8 3 6 13 24 2 6 3 5 7 10 10
6 7 7 7 7 7 8 7 6 6 7 6 5 5 7 5 8 5 8 7 10 9 7 6 7 7 8 9 11 5 12 3 12 3 -0 7 1 19 1 12 11 13 11 11 12
5 6 6 7 6 6 7 7 7 7 8 9 8 8 11 8 8 10 12 10 9 6 5 6 8 7 10 9 9 7 -3 3 4 14 3 7 1 3 -0 12 12 14 12 11 9
7 7 7 6 5 5 6 7 7 7 7 6 6 9 6 5 4 10 9 10 5 4 6 5 5 10 7 2 -5 -1 7 8 2 3 -0 3 6 12 10 16 15 12 9 7 7
9 8 8 7 7 7 7 8 8 10 8 5 -8 16 2 -4 6 12 11 7 5 5 8 10 6 2 7 3 5 5 8 6 8 8 7 6 11 15 12 15 9 6 5 6 7
8 8 7 7 7 7 8 8 7 3 10 13 10 8 6 11 12 10 6 5 5 7 8 8 6 8 6 5 2 5 7 7 9 14 6 1 17 22 11 11 4 5 6 7 7
10 10 9 8 9 7 8 11 7 13 9 9 9 9 9 12 9 6 5 5 4 7 8 6 -3 -6 2 8 6 6 7 7 5 11 6 18 40 30 11 4 5 6 6 7 8
8 9 9 8 7 7 11 5 6 8 14 16 18 13 14 8 11 10 11 10 10 10 11 23 23 20 15 14 8 1 14 13 8 8 12 -6 -5 -3 19 4 4 5 6 7 9
7 7 8 8 10 10 7 4 10 8 12 16 10 6 10 9 -3 8 8 11 7 6 4 -12 -5 -1 4 4 4 5 7 5 5 7 13 25 22 21 17 21 1 6 6 4 3
6 6 7 8 10 8 6 7 7 11 12 11 5 7 5 8 11 9 7 8 8 9 9 10 10 11 10 9 10 6 5 7 17 19 32 36 6 28 22 33 19 12 3 4 4
7 6 7 6 8 10 8 9 8 8 11 17 10 -2 3 11 15 15 11 11 9 10 13 8 9 11 14 9 7 11 4 17 19 14 -2 1 33 -36 -24 -13 6 5 7 3 1
7 7 7 7 8 7 9 10 5 8 2 0 -2 5 5 11 9 4 4 11 13 18 8 24 18 21 12 20 7 -2 20 -15 9 6 -8 -13 5 -17 -15 -37 29 15 14 6 2
8 8 8 8 7 8 6 11 -2 18 16 7 5 13 20 13 3 6 14 19 25 18 2 5 13 -8 -6 5 9 16 11 17 -4 24 17 12 12 16 45 55 19 -4 7 18 11
8 8 8 8 8 8 9 -3 -7 14 1 1 -0 7 3 7 1 4 17 2 14 12 7 2 19 26 17 19 13 9 -5 8 14 11 10 26 21 -25 -33 5 7 8 -5 23 8
9 9 8 11 9 8 4 4 9 11 2 2 1 -0 -1 9 10 6 5 -14 18 21 19 14 13 -15 4 5 9 15 9 9 2 -5 -0 4 8 -4 14 -4 -31 -6 32 20 10
8 8 10 13 10 10 9 9 10 7 7 4 4 5 5 10 15 17 4 7 -13 4 3 7 -3 3 7 16 17 7 4 6 -7 9 -13 -19 -14 16 28 49 15 -12 -30 -15 -4
6 7 6 6 6 11 11 7 6 8 9 11 8 1 3 5 13 23 13 13 -10 13 -2 -14 3 14 7 18 20 18 11 20 29 14 0 -14 -36 -58 -38 -13 23 15 15 23 16
8 5 11 11 9 7 5 5 6 3 6 11 5 5 7 6 12 -1 2 7 -9 -3 1 2 -1 -13 -35 -38 -6 -2 0 3 8 17 -12 -29 -16 7 9 16 11 27 31 31 22
9 10 7 -9 9 19 14 4 8 11 14 12 8 6 9 9 -0 1 26 31 16 1 -1 17 6 8 1 2 7 6 8 8 11 5 4 -15 -3 5 36 23 31 17 22 6 18
8 8 7 6 7 7 5 3 -0 1 4 7 8 8 8 2 14 15 9 8 -2 6 14 16 13 11 6 6 8 11 16 10 14 16 6 17 15 19 6 6 2 10 19 32 5
6 8 9 6 8 9 6 6 6 6 8 18 13 11 8 4 2 -0 1 3 2 2 1 3 7 8 -1 30 28 44 20 18 26 25 22 5 10 -3 15 21 30 65 26 12 11
Height
3175 3175 3175 3175 3177 3180 3182 3184 3186 3188 3189 3191 3192 3193 3194 3194 3195 3196 3196 3197 3196 3195 3194 3193 3193 3193 3192 3191 3190 3190 3190 3187 3186 3186 3185 3183 3183 3183 3183 3182 3182 3181 3181 3180 3180
3175 3176 3176 3177 3178 3181 3184 3186 3188 3189 3191 3192 3193 3194 3195 3195 3196 3197 3197 3196 3196 3195 3194 3192 3192 3192 3192 3190 3189 3188 3187 3186 3185 3184 3183 3181 3181 3181 3181 3179 3179 3178 3178 3177 3176
3176 3177 3178 3178 3180 3183 3186 3188 3189 3190 3192 3193 3194 3195 3196 3196 3197 3197 3196 3196 3195 3194 3194 3192 3190 3190 3190 3189 3188 3186 3185 3185 3183 3182 3181 3179 3178 3177 3177 3176 3176 3176 3174 3173 3173
3177 3177 3178 3180 3182 3185 3187 3189 3190 3191 3192 3193 3194 3195 3196 3196 3198 3195 3195 3194 3194 3193 3193 3191 3189 3188 3187 3187 3185 3184 3183 3182 3181 3180 3178 3177 3175 3174 3172 3174 3172 3172 3171 3170 3170
3177 3178 3180 3182 3184 3186 3187 3189 3190 3192 3193 3193 3194 3194 3195 3196 3196 3195 3194 3192 3192 3192 3191 3190 3187 3186 3185 3185 3184 3182 3181 3179 3178 3177 3176 3174 3172 3170 3169 3169 3168 3168 3167 3167 3166
3179 3180 3182 3184 3185 3186 3188 3190 3191 3192 3192 3193 3193 3194 3194 3195 3194 3194 3192 3191 3190 3189 3189 3188 3186 3185 3184 3182 3182 3180 3178 3177 3176 3174 3173 3172 3169 3167 3168 3166 3165 3165 3164 3163 3163
3179 3180 3183 3184 3186 3187 3188 3190 3191 3191 3192 3192 3193 3193 3192 3194 3193 3192 3190 3190 3189 3188 3187 3187 3185 3184 3182 3181 3180 3178 3177 3175 3173 3172 3171 3169 3166 3164 3164 3163 3162 3161 3160 3159 3159
3179 3181 3183 3184 3186 3187 3188 3189 3189 3190 3191 3191 3191 3191 3190 3191 3191 3190 3189 3188 3187 3187 3186 3185 3184 3182 3180 3179 3178 3177 3175 3173 3172 3170 3169 3167 3161 3162 3161 3159 3158 3157 3156 3156 3155
3179 3180 3182 3184 3185 3186 3187 3188 3188 3189 3190 3190 3190 3190 3190 3189 3189 3188 3187 3186 3186 3186 3185 3184 3183 3181 3179 3178 3178 3176 3173 3172 3170 3168 3166 3164 3158 3159 3157 3154 3154 3153 3153 3153 3152
3180 3180 3181 3182 3184 3185 3186 3187 3187 3188 3188 3188 3188 3190 3188 3188 3187 3186 3186 3185 3185 3184 3184 3182 3181 3179 3177 3176 3176 3174 3172 3170 3168 3166 3162 3158 3153 3155 3152 3150 3149 3149 3149 3149 3150
3179 3179 3180 3182 3183 3184 3185 3187 3188 3188 3186 3186 3186 3186 3185 3185 3185 3185 3184 3183 3183 3183 3182 3180 3179 3177 3176 3174 3174 3172 3169 3167 3166 3164 3159 3154 3147 3148 3147 3144 3144 3145 3146 3146 3146
3177 3178 3179 3181 3182 3183 3184 3185 3185 3186 3185 3183 3183 3184 3183 3182 3183 3183 3183 3183 3181 3181 3180 3179 3175 3176 3173 3171 3171 3169 3166 3164 3162 3160 3156 3152 3141 3141 3141 3140 3141 3141 3142 3142 3142
3177 3177 3178 3181 3183 3182 3183 3184 3183 3182 3182 3181 3181 3182 3181 3181 3180 3181 3182 3180 3179 3178 3177 3175 3174 3172 3171 3169 3168 3166 3164 3162 3161 3157 3154 3148 3136 3136 3136 3137 3137 3137 3138 3137 3138
3176 3178 3180 3182 3183 3181 3183 3182 3182 3181 3180 3181 3179 3179 3179 3178 3178 3178 3179 3179 3176 3175 3174 3172 3170 3169 3167 3166 3167 3163 3161 3159 3157 3156 3152 3150 3140 3133 3134 3133 3133 3134 3134 3134 3133
3177 3178 3180 3180 3179 3181 3182 3181 3181 3181 3181 3180 3178 3178 3177 3178 3177 3176 3176 3174 3174 3173 3173 3170 3167 3166 3164 3164 3163 3161 3159 3157 3154 3152 3148 3145 3146 3126 3130 3129 3129 3130 3130 3129 3128
3176 3178 3178 3178 3179 3180 3179 3180 3181 3183 3178 3177 3176 3177 3177 3175 3174 3174 3174 3173 3171 3169 3167 3165 3164 3163 3160 3160 3159 3158 3157 3154 3150 3148 3144 3138 3139 3120 3124 3124 3125 3126 3126 3126 3124
3175 3175 3176 3176 3178 3178 3179 3180 3182 3178 3178 3176 3176 3176 3175 3173 3172 3172 3171 3170 3169 3167 3164 3162 3160 3157 3157 3156 3156 3155 3156 3153 3149 3146 3140 3135 3134 3118 3122 3122 3122 3122 3121 3121 3120
3172 3173 3174 3175 3176 3177 3178 3180 3179 3176 3175 3174 3174 3174 3173 3172 3171 3170 3169 3167 3165 3164 3162 3161 3157 3155 3155 3154 3154 3153 3153 3152 3150 3145 3137 3134 3125 3116 3118 3118 3118 3118 3117 3115 3114
3170 3171 3172 3172 3173 3174 3176 3176 3174 3174 3173 3172 3173 3171 3171 3171 3171 3168 3166 3164 3162 3161 3162 3159 3156 3154 3154 3153 3154 3150 3149 3149 3146 3141 3138 3126 3117 3113 3115 3113 3114 3114 3112 3111 3109
3167 3167 3168 3169 3170 3171 3172 3171 3171 3171 3170 3170 3170 3170 3169 3169 3169 3167 3165 3163 3161 3160 3160 3158 3154 3151 3150 3150 3149 3148 3148 3146 3145 3142 3134 3116 3113 3109 3111 3110 3109 3109 3108 3106 3104
3164 3164 3165 3166 3167 3167 3165 3166 3167 3168 3168 3168 3167 3168 3167 3167 3166 3164 3162 3162 3159 3158 3157 3156 3154 3150 3148 3147 3145 3145 3142 3142 3141 3137 3130 3121 3106 3108 3108 3107 3104 3104 3102 3100 3098
3160 3161 3161 3162 3164 3161 3161 3163 3164 3163 3163 3163 3162 3163 3163 3162 3161 3160 3158 3158 3157 3156 3155 3154 3150 3144 3143 3142 3140 3138 3137 3136 3136 3130 3125 3114 3094 3103 3103 3101 3099 3099 3097 3096 3093
3156 3157 3157 3158 3158 3158 3158 3159 3159 3158 3159 3159 3159 3159 3158 3158 3158 3154 3153 3154 3153 3153 3151 3150 3146 3143 3139 3138 3134 3132 3132 3132 3130 3126 3117 3118 3091 3095 3097 3095 3093 3088 3087 3084 3081
3152 3152 3153 3153 3153 3154 3154 3154 3155 3154 3154 3155 3155 3155 3154 3153 3153 3150 3149 3149 3149 3148 3147 3145 3142 3141 3136 3132 3129 3126 3127 3127 3127 3120 3111 3102 3080 3091 3087 3085 3081 3077 3073 3069 3065
3146 3146 3147 3148 3148 3149 3150 3150 3150 3150 3150 3150 3150 3150 3150 3148 3147 3146 3146 3144 3143 3142 3141 3139 3133 3132 3125 3125 3123 3120 3119 3122 3116 3109 3107 3080 3086 3084 3081 3077 3073 3069 3066 3062 3059
3141 3142 3143 3143 3144 3145 3145 3146 3146 3147 3146 3145 3145 3146 3144 3142 3143 3141 3141 3140 3138 3136 3135 3132 3125 3122 3112 3118 3117 3109 3110 3109 3106 3098 3092 3087 3076 3083 3075 3072 3067 3063 3059 3055 3053
3134 3135 3136 3136 3137 3139 3140 3140 3140 3140 3140 3140 3139 3138 3137 3138 3136 3135 3133 3132 3131 3129 3128 3125 3122 3118 3100 3108 3107 3099 3099 3098 3092 3088 3088 3085 3079 3073 3068 3063 3056 3053 3051 3049 3047